Lapse_Rate
3.5 3.1 2.8 2.4 2.3 2.7 3.3 3.1 2.4 2.5 2.8 2.7 2.4 2.5 2.4 2.4 2.5 2.3 2.3 2.3 2.6 3.0 3.3 3.5 3.5 3.4 3.6 4.0 4.4 4.3 4.3 4.2 3.8 3.1 3.0 1.9 1.8 1.8 1.3 0.7 0.8 0.7 2.1
2.2 2.7 2.9 2.2 2.1 2.5 2.7 2.4 2.5 2.4 2.4 2.5 2.2 2.2 2.3 2.1 1.7 1.9 1.8 1.8 1.8 2.3 2.6 3.2 2.9 3.5 3.0 3.2 3.6 3.9 4.5 3.9 4.0 3.2 2.6 1.6 1.8 1.7 1.0 1.0 1.1 1.0 1.6
3.1 2.9 2.7 2.3 2.1 2.7 2.7 2.3 2.3 2.1 2.1 1.9 2.1 2.0 2.0 1.9 1.8 1.3 1.4 1.5 1.3 1.8 2.6 2.7 2.8 3.2 2.8 2.7 2.8 3.0 3.5 3.4 3.6 3.2 2.8 2.3 1.6 1.6 1.6 1.4 1.2 1.1 1.3
3.2 2.9 2.9 2.4 2.6 3.0 2.8 2.6 2.6 2.1 1.8 1.4 1.4 1.8 2.0 1.9 2.1 1.8 1.6 1.5 1.6 1.5 1.6 1.9 2.3 2.4 2.9 3.1 2.8 2.7 3.0 3.0 2.9 2.7 2.4 2.6 2.3 2.0 2.4 2.4 1.8 1.4 1.4
3.1 3.1 2.5 2.6 2.7 2.0 2.6 3.0 2.9 2.3 1.6 1.0 1.2 1.3 1.6 2.3 2.4 2.6 2.3 2.1 2.2 2.0 1.4 1.8 2.5 3.0 2.9 3.2 3.3 2.8 3.5 3.7 3.8 3.4 3.4 3.1 3.0 3.0 3.3 2.9 2.5 2.5 2.4
3.1 3.3 2.5 2.0 1.2 1.6 1.9 3.2 2.7 1.9 1.7 1.0 0.9 1.3 1.5 2.3 0.9 2.7 3.0 2.8 2.2 1.7 1.3 1.5 1.8 1.7 1.8 2.0 2.1 2.4 2.7 4.3 5.1 5.1 4.2 4.4 4.2 4.0 3.2 3.1 3.0 3.6 4.4
3.3 2.8 2.7 2.5 2.4 1.5 2.3 1.9 2.4 1.7 1.6 0.5 0.7 1.1 0.8 1.3 0.5 1.6 2.5 2.6 2.3 1.9 1.6 1.7 2.4 1.8 1.4 1.8 1.6 1.5 1.6 2.1 3.3 5.6 5.4 4.5 4.7 4.5 4.0 3.7 3.9 4.5 4.7
2.2 2.9 2.6 2.7 2.4 1.5 2.1 2.0 2.9 2.7 2.2 1.3 1.0 0.9 1.0 0.7 0.1 0.8 1.8 2.3 2.1 1.7 1.8 2.1 2.2 2.1 2.1 2.3 2.5 2.2 2.0 2.3 2.9 4.3 4.1 4.8 5.0 4.5 4.5 4.8 4.7 3.2 3.2
0.7 0.9 1.3 2.3 1.6 1.2 1.6 2.5 2.5 2.6 2.2 1.6 1.2 1.5 1.4 0.7 -0.3 0.4 1.9 2.1 2.0 1.5 1.7 2.3 3.1 3.3 2.2 2.0 3.6 3.1 3.1 3.0 3.4 2.5 2.1 2.0 2.4 2.6 3.2 5.9 5.8 5.8 5.5
0.3 0.0 0.3 0.6 1.2 1.4 2.9 3.3 2.5 2.4 2.3 1.5 1.1 1.1 0.5 0.8 -1.6 0.5 2.4 3.1 2.7 2.6 1.8 1.9 1.7 2.2 1.8 2.1 4.2 4.4 4.7 4.2 4.5 4.7 3.9 3.2 2.5 2.5 2.2 3.2 5.9 6.4 6.2
-0.7 -0.1 0.0 -0.2 0.8 1.2 3.2 2.8 2.1 1.5 1.1 1.3 1.5 1.0 0.4 0.0 0.2 -0.4 1.2 4.4 4.1 3.6 3.4 2.7 2.5 0.4 -0.3 0.5 2.1 4.4 4.6 4.1 3.9 4.1 4.4 4.5 4.4 4.3 4.2 3.6 3.1 5.0 5.9
-0.4 -0.4 -0.7 0.1 0.7 1.5 2.7 2.2 1.4 1.3 0.8 1.0 1.7 0.8 0.7 1.0 -0.6 -1.2 0.6 2.0 3.3 4.1 2.8 2.6 2.3 -0.1 -0.2 0.2 2.4 0.3 0.7 2.3 3.6 4.2 4.9 5.2 5.4 5.7 5.1 4.4 3.9 4.0 4.0
0.5 0.2 0.3 -0.6 -1.2 1.0 2.8 1.9 1.3 1.2 1.0 1.5 1.6 1.5 1.1 0.6 0.6 -0.6 -0.7 1.0 1.8 3.0 2.9 1.9 1.1 0.6 1.1 1.9 0.6 0.6 1.6 4.0 4.3 4.9 5.3 5.2 4.5 4.1 3.5 4.5 4.5 4.0 4.2
1.1 0.5 -0.3 -0.3 0.6 1.2 1.4 1.7 1.6 1.7 1.4 1.6 1.4 1.4 1.6 1.6 2.1 2.0 2.3 3.2 2.8 3.0 3.0 3.1 2.3 2.0 1.4 2.2 3.6 3.4 3.9 4.2 4.7 5.3 5.4 4.8 4.2 4.8 5.2 4.4 5.4 5.5 6.3
1.8 1.1 0.4 0.7 1.1 0.0 -1.5 -0.8 0.5 -0.3 1.4 1.7 1.7 1.9 1.7 2.3 1.8 0.2 2.1 2.1 2.8 2.9 3.3 3.1 3.9 4.2 4.9 4.6 4.5 4.2 4.2 4.5 5.2 4.4 5.1 5.4 5.5 5.4 5.5 4.6 5.0 5.4 6.2
0.8 0.7 1.6 1.4 1.3 1.0 1.0 -0.5 -2.3 -2.6 -3.0 -1.9 -0.3 2.3 2.0 0.3 -1.2 -0.8 -0.3 0.3 0.9 1.9 3.7 3.5 4.0 4.2 5.1 5.1 5.1 5.1 4.7 4.8 4.9 5.0 5.2 5.2 5.7 5.9 6.1 6.1 5.5 5.8 6.3
0.8 0.2 0.5 1.1 1.2 0.9 1.0 1.5 1.3 0.2 -2.1 -2.9 -2.4 -1.0 0.8 -0.2 -0.5 -0.3 -0.1 -0.6 -0.0 2.2 4.2 3.3 4.2 4.4 4.7 4.8 5.1 5.3 6.0 4.9 3.4 4.8 5.0 5.5 5.7 6.1 6.3 6.8 6.5 6.2 6.6
1.1 0.2 0.7 0.3 0.3 0.1 0.4 0.6 1.2 2.1 2.2 1.7 -0.8 -0.3 -1.9 -1.4 -0.9 -0.4 0.2 1.6 4.4 3.4 3.4 4.1 4.4 4.2 4.4 4.9 5.0 5.2 5.2 5.0 5.2 5.2 5.6 5.8 5.9 6.0 6.6 7.0 6.8 6.4 6.7
1.6 1.1 0.6 0.4 0.3 0.4 0.5 0.5 0.9 1.0 1.2 0.8 0.3 -0.1 -1.4 -2.0 -1.3 -0.8 -0.3 3.4 4.2 4.2 3.7 3.7 3.6 3.9 4.2 4.4 4.4 4.2 4.1 5.0 5.0 5.2 5.6 5.7 6.0 5.9 6.5 6.6 6.8 4.1 5.1
2.2 1.4 0.9 1.2 1.2 1.5 1.5 1.7 1.6 1.5 1.6 1.7 1.8 2.0 0.6 0.8 2.4 2.8 2.6 2.8 3.3 3.7 3.6 3.8 4.0 3.7 3.9 3.8 4.0 4.0 4.5 4.5 4.9 5.1 5.5 5.6 5.7 5.6 6.2 6.4 6.6 6.7 7.0
3.2 2.8 2.2 2.3 2.5 2.6 2.5 2.3 2.4 2.3 2.5 2.6 2.5 1.6 -0.3 3.0 3.4 3.0 3.2 3.1 3.4 3.7 3.7 3.8 4.3 4.0 3.6 3.5 3.7 3.8 4.3 4.8 4.7 4.7 4.9 5.2 5.4 6.0 6.0 5.9 6.1 6.6 6.6
3.7 3.2 2.8 2.9 2.9 2.8 2.8 2.7 2.5 2.6 2.7 2.9 3.0 1.9 -2.5 2.2 3.0 3.4 3.4 3.6 3.7 2.9 2.7 2.6 3.6 2.9 2.3 2.2 2.0 2.9 3.4 3.6 3.2 3.1 3.6 4.1 4.6 5.1 5.4 5.8 6.3 6.7 6.9
2.5 2.6 2.6 2.7 2.9 2.0 2.4 2.7 2.9 3.0 3.0 2.9 2.5 2.9 1.8 2.2 2.6 2.7 2.5 2.7 1.1 0.3 -0.4 0.4 0.1 -0.7 -1.6 -1.9 -2.0 -1.1 0.5 0.5 0.1 0.2 1.9 3.1 3.9 4.5 4.9 5.4 6.1 6.4 6.7
3.7 3.8 3.9 3.6 3.1 3.4 3.3 3.4 3.5 2.4 3.4 3.4 2.5 1.7 1.9 1.6 2.2 1.5 0.4 -0.5 -0.8 -1.4 -1.7 -1.6 -1.6 -1.7 -1.9 -1.9 -2.0 -2.0 -1.9 -2.2 -0.9 0.1 0.6 2.9 3.8 3.7 4.5 4.9 5.5 5.7 6.3
4.2 4.1 3.7 3.2 3.0 3.2 2.9 3.0 2.9 2.3 2.8 2.9 2.3 1.7 1.0 0.4 0.1 0.1 -0.7 -1.2 -1.5 -1.6 -2.1 -2.1 -1.9 -1.9 -1.8 -1.7 -1.7 -1.5 -2.1 -2.0 -1.3 -1.4 1.2 2.0 2.8 3.0 3.7 4.4 4.7 5.3 5.8
3.0 3.0 2.7 2.4 2.4 2.7 3.0 2.6 3.1 1.9 2.3 2.6 1.6 1.1 0.7 0.5 0.4 0.2 -0.5 -0.8 -0.9 -1.3 -1.4 -1.4 -1.4 -1.3 -1.2 -1.2 -1.4 -1.4 -1.2 -1.5 -1.1 -1.4 0.8 1.6 2.4 2.8 3.1 3.7 4.1 5.0 5.6
Wind_Speed
7 5 5 5 6 5 4 4 4 5 6 7 7 7 7 7 7 7 8 8 9 8 8 8 8 7 5 3 1 1 1 2 3 2 2 2 4 6 9 13 13 14 16
9 6 5 6 6 5 4 4 5 6 5 6 6 7 8 8 9 9 9 9 10 10 9 9 9 6 7 6 4 3 1 3 2 3 2 2 4 5 8 7 9 13 12
4 6 5 5 5 4 4 4 5 6 6 6 7 7 8 8 8 8 8 9 10 8 8 9 8 8 8 5 6 5 3 4 4 3 3 2 2 2 5 6 6 9 11
5 5 5 6 5 5 3 4 4 5 6 6 6 6 7 8 8 8 8 9 9 9 9 9 9 9 8 7 7 6 5 5 5 5 4 3 2 3 3 2 4 4 4
4 5 6 6 5 5 5 4 4 5 5 6 6 6 6 6 4 6 7 7 7 8 8 8 9 12 16 11 5 6 6 5 5 5 3 2 2 1 1 1 2 2 3
5 5 6 6 7 7 6 5 5 6 5 6 5 5 6 3 4 6 6 6 7 7 7 7 7 11 12 16 16 17 10 5 6 3 2 2 3 2 2 1 2 1 1
6 3 6 8 9 8 8 7 6 6 6 5 5 4 5 4 7 9 9 6 7 7 7 6 7 7 9 8 14 15 16 16 11 5 6 3 2 2 3 3 2 1 1
4 5 5 7 9 8 8 7 6 5 7 5 4 4 5 4 6 10 10 7 7 7 6 6 6 7 8 8 9 10 10 10 9 7 7 4 4 3 2 1 2 3 2
3 4 5 4 7 8 8 7 6 6 6 4 3 4 5 4 5 6 7 6 6 6 5 6 4 5 6 6 8 8 7 6 11 15 16 16 16 13 7 2 2 2 1
3 4 3 2 3 6 7 7 5 6 6 5 5 4 6 4 6 4 5 4 4 3 4 5 9 4 6 6 6 5 5 2 3 4 5 9 10 9 10 5 1 3 1
5 4 3 3 2 1 5 5 7 7 8 5 6 4 5 5 6 4 6 2 3 3 3 3 4 7 8 7 5 3 1 2 3 3 3 3 4 5 6 8 6 1 1
4 5 5 4 4 1 8 7 9 8 7 5 5 3 3 4 8 6 8 7 4 4 3 2 2 6 9 8 6 6 6 3 2 2 1 2 3 3 3 5 5 4 2
4 5 4 4 4 4 7 8 7 7 6 4 2 3 2 2 3 9 9 7 7 4 3 3 3 6 7 6 9 9 6 4 3 2 1 1 2 2 5 3 2 2 1
5 4 4 5 6 6 5 4 6 6 5 4 3 3 2 2 3 2 3 4 5 5 3 3 3 5 6 3 4 6 4 3 3 2 2 2 2 2 2 3 2 4 3
4 3 4 5 6 6 6 4 4 4 3 3 3 3 3 2 2 3 3 3 2 2 3 2 1 2 1 2 3 3 3 3 3 2 2 3 3 3 2 2 1 2 2
5 3 2 3 4 4 5 5 13 9 10 9 7 4 2 6 7 6 6 4 4 0 3 1 1 2 3 2 2 2 2 3 2 3 3 3 3 3 3 2 2 3 4
5 4 3 3 4 5 4 5 6 5 9 9 8 8 5 7 6 5 5 6 5 1 2 1 2 2 1 1 2 1 1 1 1 2 2 2 3 3 3 4 3 3 4
6 7 5 4 5 5 4 4 4 5 4 2 5 4 6 7 6 5 4 3 1 3 1 2 2 2 2 1 1 1 1 1 1 2 2 2 2 3 4 3 3 4 4
7 6 5 5 4 4 4 4 4 4 4 3 1 3 4 5 4 4 3 1 2 1 1 2 2 2 3 2 2 2 2 2 2 2 2 2 2 3 4 4 4 4 4
5 8 6 5 4 4 4 4 3 3 3 3 3 3 3 2 2 2 2 2 2 2 2 2 3 3 3 2 2 2 3 3 3 3 3 3 3 3 4 5 5 5 5
5 6 8 5 5 4 4 4 3 3 3 3 3 3 6 3 3 2 2 2 3 3 3 3 2 2 2 2 2 2 3 3 3 3 4 4 4 5 4 5 5 6 6
6 6 6 6 6 6 6 5 5 4 4 4 3 3 8 4 3 3 3 3 3 4 4 4 3 1 3 3 2 2 2 2 3 4 5 5 5 5 5 6 6 6 6
5 6 6 5 5 4 4 5 6 5 6 6 5 6 6 5 5 4 2 2 2 3 5 5 6 6 7 8 8 7 4 4 4 5 5 5 5 5 5 6 7 7 7
6 6 6 5 5 5 5 4 3 3 3 2 3 3 3 2 2 3 4 4 5 7 9 10 10 9 9 9 9 9 8 6 5 5 6 5 5 5 5 6 6 8 7
6 5 5 5 5 5 5 4 3 3 4 4 4 4 5 5 5 5 5 7 8 9 9 10 10 10 11 11 11 11 12 12 9 6 4 5 5 7 6 6 7 7 8
5 6 6 6 6 5 5 4 5 3 4 5 5 4 5 5 7 6 6 7 7 8 9 8 8 9 9 9 10 11 12 13 12 14 8 8 6 6 6 7 9 6 7
Wind_Direction
119 106 121 117 105 100 98 76 62 65 56 56 50 42 42 43 35 46 54 51 53 42 37 48 45 39 46 35 64 147 113 70 104 87 80 82 66 83 76 69 63 65 64
127 146 160 128 118 121 115 97 93 87 69 71 63 57 45 48 52 52 58 55 61 51 38 45 40 39 43 35 49 51 158 99 116 114 95 82 76 71 81 77 64 61 61
134 147 135 124 112 115 120 113 108 101 89 74 68 65 61 50 51 55 60 61 64 56 43 46 40 43 43 37 44 53 55 86 89 123 107 87 94 78 85 70 61 53 45
158 142 142 137 139 141 123 125 127 113 105 91 76 75 70 65 57 64 68 63 60 54 46 46 42 41 42 44 52 44 60 76 84 94 83 93 93 78 71 88 73 50 49
167 162 147 153 155 141 141 140 138 118 107 100 95 73 65 66 67 77 71 61 55 55 48 40 38 50 50 51 54 44 69 82 84 89 84 90 92 116 100 92 80 87 63
210 188 152 162 161 154 145 148 144 126 106 101 87 83 75 65 54 105 82 70 63 52 52 47 44 40 49 55 59 57 50 76 89 90 77 75 103 87 96 118 126 167 105
240 178 160 157 178 172 143 138 148 133 118 104 96 88 75 73 81 99 88 75 68 60 56 50 56 50 52 61 55 54 49 49 54 84 84 51 76 136 142 142 164 139 117
210 198 168 188 173 153 141 146 149 140 126 117 99 86 84 53 79 97 96 86 74 55 46 49 64 53 48 68 70 61 53 51 52 69 72 48 51 66 106 140 152 112 101
182 166 102 141 175 150 150 151 142 134 123 119 117 105 92 57 34 101 102 99 87 69 52 36 52 75 61 51 79 77 68 58 61 71 68 59 64 65 63 79 85 149 158
164 115 77 112 126 144 161 152 131 123 119 117 103 93 91 83 31 148 120 119 103 95 66 39 31 60 94 85 92 91 88 70 41 44 35 42 51 53 49 45 312 252 233
107 100 83 55 34 162 152 131 131 126 114 107 102 93 73 43 43 118 141 120 116 104 79 55 28 30 77 77 78 62 21 148 70 77 63 48 50 51 42 33 27 327 225
106 102 77 53 22 9 121 115 114 120 115 117 120 89 63 53 29 51 123 99 123 110 103 90 59 63 61 54 63 54 57 125 103 105 61 28 17 27 26 9 11 38 45
97 82 81 68 58 42 115 122 117 122 124 131 146 110 87 57 54 56 69 84 98 98 107 105 94 94 96 73 47 54 61 70 82 85 114 330 326 323 314 324 315 322 306
100 73 61 77 77 64 69 85 122 128 130 145 139 125 129 98 88 82 75 80 66 81 76 69 80 84 61 52 50 43 50 42 36 32 1 336 322 333 342 0 335 344 314
103 75 83 86 87 84 65 48 90 60 109 142 138 146 143 146 139 92 97 94 94 119 114 68 23 50 38 38 48 39 34 36 41 22 358 348 345 345 357 347 322 316 294
118 113 97 99 95 94 101 85 51 62 63 76 98 123 80 103 123 104 92 100 61 242 70 83 86 64 66 46 38 33 32 23 24 4 350 343 337 340 343 345 338 312 299
127 127 118 126 126 124 115 120 116 64 68 62 73 93 110 143 123 105 84 88 46 50 85 104 141 155 120 73 48 26 21 12 342 348 342 335 330 334 342 332 329 327 312
145 145 156 155 138 128 135 133 142 143 130 108 51 72 95 108 98 85 81 82 81 56 93 168 187 182 177 203 205 227 289 302 326 330 331 330 328 316 312 303 303 307 309
158 159 154 136 123 119 119 124 126 120 120 121 121 90 91 96 93 85 59 149 157 172 197 228 240 225 229 244 245 242 254 269 284 300 295 293 308 293 294 282 290 271 280
167 153 138 139 142 150 148 133 133 134 135 143 159 172 157 139 188 192 192 181 201 230 234 244 243 233 237 247 273 273 275 276 282 276 279 283 288 274 286 288 278 281 282
173 167 166 163 168 183 183 167 191 191 190 197 203 197 180 170 171 187 199 209 236 256 262 260 267 232 207 227 231 236 269 291 295 292 288 285 277 278 270 277 283 280 272
175 177 185 197 183 194 206 196 210 218 230 236 227 222 190 212 196 191 211 242 262 272 266 261 226 96 59 56 47 10 350 346 344 331 313 301 294 288 287 286 287 285 283
173 180 184 191 194 188 188 199 220 222 235 232 213 216 198 207 207 212 250 343 39 36 39 72 96 84 74 72 63 53 35 12 344 332 323 324 324 321 310 298 296 292 286
170 172 178 179 169 186 192 200 205 232 246 217 184 188 185 174 168 112 104 95 93 85 82 86 87 92 86 76 66 55 42 13 346 337 331 330 336 337 324 312 306 303 293
165 165 170 172 171 165 157 157 158 150 142 131 122 122 125 116 107 107 110 107 103 97 89 91 93 91 85 81 73 64 50 45 31 16 6 360 357 352 345 331 333 321 312
155 151 152 153 139 146 149 145 148 137 136 137 124 117 115 113 116 122 117 114 110 106 105 99 100 102 96 84 75 68 56 48 41 38 37 31 24 17 358 352 346 332 330